CT1AKV-10 Weather Reports


time (UTC)temp
C
wind
direction
speed
KPH
gust
KPH
rain 1hr
cm
rain 24hr
cm
rain mn
cm
humidity
%
barometer
mb
20180221224504 9 0 0.0 0.0 0.00 0.00 0.00 10 984.4
20180221223004 10 0 0.0 0.0 0.00 0.00 0.00 10 984.4
20180221221504 9 0 0.0 0.0 0.00 0.00 0.00 10 984.2
20180221220004 8 0 0.0 0.0 0.00 0.00 0.00 10 984.2
20180221214504 8 0 0.0 0.0 0.00 0.00 0.00 10 984.1
20180221213004 8 0 0.0 0.0 0.00 0.00 0.00 10 984.5
20180221211504 8 0 0.0 0.0 0.00 0.00 0.00 10 984.2
20180221210004 8 0 0.0 0.0 0.00 0.00 0.00 10 984.2
20180221204505 9 0 0.0 0.0 0.00 0.00 0.00 10 984.2
20180221203004 10 0 0.0 0.0 0.00 0.00 0.00 10 984.2
20180221201505 10 0 0.0 0.0 0.00 0.00 0.00 10 984.0
20180221200004 10 0 0.0 0.0 0.00 0.00 0.00 10 983.8
20180221194504 11 0 0.0 0.0 0.00 0.00 0.00 10 983.7
20180221193005 11 0 0.0 0.0 0.00 0.00 0.00 10 983.6
20180221191505 11 0 0.0 0.0 0.00 0.00 0.00 10 983.5
20180221190004 12 0 0.0 1.6 0.00 0.00 0.00 10 983.3
20180221184504 12 0 0.0 1.6 0.00 0.00 0.00 10 983.1
20180221183004 13 0 0.0 0.0 0.00 0.00 0.00 10 983.0
20180221181505 14 0 0.0 3.2 0.00 0.00 0.00 10 983.0
20180221180004 15 0 0.0 0.0 0.00 0.00 0.00 10 982.9
20180221174504 15 0 0.0 0.0 0.00 0.00 0.00 10 982.9
20180221173004 16 0 0.0 1.6 0.00 0.00 0.00 10 982.8
20180221171504 17 0 0.0 0.0 0.00 5.36 0.00 10 982.5
20180221170004 18 0 0.0 0.0 0.00 0.00 0.00 10 982.5
20180221164504 19 0 0.0 0.0 0.00 0.00 0.00 10 982.5
20180221163004 19 0 0.0 0.0 0.00 0.00 0.00 10 982.5
20180221161504 21 0 0.0 0.0 0.00 0.00 0.00 10 982.6
20180221160005 23 0 0.0 1.6 0.00 0.00 0.00 10 982.5
20180221154504 23 0 0.0 0.0 0.00 0.00 0.00 10 982.7
20180221153004 23 0 0.0 0.0 0.00 0.00 0.00 10 982.9
20180221151505 23 0 0.0 0.0 0.00 0.00 0.00 10 983.0
20180221150004 22 0 0.0 0.0 0.00 0.00 0.00 10 983.1
20180221144505 23 0 0.0 0.0 0.00 0.00 0.00 10 983.4
20180221143004 22 0 0.0 0.0 0.00 0.00 0.00 10 983.5
20180221141504 22 0 0.0 0.0 0.00 0.00 0.00 10 983.8
20180221140004 22 0 0.0 0.0 0.00 5.36 0.00 10 984.1
20180221134504 22 0 0.0 0.0 0.00 0.00 0.00 10 984.5
20180221133004 21 0 0.0 1.6 0.00 5.36 0.00 10 984.8
20180221131504 22 0 0.0 0.0 0.00 5.36 0.00 10 985.1
20180221130005 21 0 0.0 1.6 0.00 5.36 0.00 10 985.4
20180221124504 21 0 0.0 0.0 0.00 5.36 0.00 10 985.6
20180221123004 21 0 0.0 0.0 0.00 0.00 0.00 10 985.9
20180221121504 21 0 0.0 0.0 0.00 0.00 0.00 10 986.4
20180221120004 21 0 0.0 0.0 0.00 0.00 0.00 10 986.7
20180221114504 21 0 0.0 0.0 0.00 0.00 0.00 10 987.0
20180221113004 20 0 0.0 0.0 0.00 0.00 0.00 10 987.1
20180221111505 20 0 0.0 0.0 0.00 0.00 0.00 10 987.2
20180221110005 19 0 0.0 0.0 0.00 0.00 0.00 10 987.4
20180221104506 19 0 0.0 0.0 0.00 0.00 0.00 10 987.4
20180221103004 18 0 0.0 0.0 0.00 5.36 0.00 10 987.4
20180221101504 17 0 0.0 0.0 0.00 5.36 0.00 10 987.3
20180221100003 16 0 0.0 0.0 0.00 5.36 0.00 10 987.5
20180221094504 15 0 0.0 0.0 0.00 5.36 0.00 10 987.4
20180221093004 13 0 0.0 0.0 0.00 5.36 0.00 10 987.5
20180221090003 12 0 0.0 1.6 0.00 5.36 0.00 10 987.3
20180221084504 11 0 0.0 0.0 0.00 5.36 0.00 10 987.6
20180221083004 10 0 0.0 0.0 0.00 5.36 0.00 10 987.6
20180221081504 6 0 0.0 0.0 0.00 5.36 0.00 10 987.5
20180221080004 5 0 0.0 0.0 0.00 5.36 0.00 10 987.3
20180221074504 5 0 0.0 0.0 0.00 5.36 0.00 10 987.0
20180221073005 5 0 0.0 0.0 0.00 5.36 0.00 10 986.7
20180221071504 5 0 0.0 0.0 0.00 5.36 0.00 10 986.6
20180221070004 5 0 0.0 0.0 0.00 5.36 0.00 10 986.4
20180221064505 5 0 0.0 0.0 0.00 5.36 0.00 10 986.4
20180221063004 5 0 0.0 0.0 0.00 5.36 0.00 10 986.6
20180221061504 6 0 0.0 0.0 0.00 5.36 0.00 10 986.6
20180221060003 6 0 0.0 0.0 0.00 5.36 0.00 10 987.0
20180221054504 6 0 0.0 0.0 0.00 5.36 0.00 10 987.0
20180221053004 5 0 0.0 0.0 0.00 5.36 0.00 10 987.2
20180221051504 5 0 0.0 0.0 0.00 5.36 0.00 10 987.3
20180221050004 6 0 0.0 0.0 0.00 5.36 0.00 10 987.4
20180221044504 6 0 0.0 0.0 0.00 5.36 0.00 10 987.6
20180221043005 7 0 0.0 0.0 0.00 5.36 0.00 10 987.6
20180221041505 8 0 0.0 0.0 0.00 5.36 0.00 10 987.8
20180221040004 8 0 0.0 0.0 0.00 5.36 0.00 10 987.8
20180221034504 8 0 0.0 0.0 0.00 5.36 0.00 10 988.0
20180221033005 7 0 0.0 0.0 0.00 5.36 0.00 10 988.3
20180221031505 7 0 0.0 0.0 0.00 5.36 0.00 10 988.3
20180221030005 6 0 0.0 0.0 0.00 5.36 0.00 10 988.5
20180221024504 6 0 0.0 0.0 0.00 5.36 0.00 10 988.7
20180221023004 6 0 0.0 0.0 0.00 5.36 0.00 10 988.9
20180221021504 6 0 0.0 0.0 0.00 5.36 0.00 10 989.1
20180221020004 7 0 0.0 0.0 0.00 5.36 0.00 10 989.3
20180221014505 7 0 0.0 0.0 0.00 5.36 0.00 10 989.4
20180221013004 7 0 0.0 0.0 0.00 5.36 0.00 10 989.4
20180221011504 7 0 0.0 0.0 0.00 5.36 0.00 10 989.6
20180221010004 7 0 0.0 0.0 0.00 5.36 0.00 10 989.8
20180221004505 7 0 0.0 0.0 0.00 5.36 0.00 10 990.0
20180221003004 7 0 0.0 0.0 0.00 5.36 0.00 10 990.0
20180221001504 7 0 0.0 0.0 0.00 5.36 0.00 10 990.1
20180221000006 8 0 0.0 0.0 0.00 5.36 0.00 10 990.2
20180220234504 8 0 0.0 0.0 0.00 5.36 0.00 10 990.3
20180220233005 8 0 0.0 0.0 0.00 5.36 0.00 10 990.4
20180220231504 8 0 0.0 0.0 0.00 0.00 0.00 10 990.5
20180220230004 9 0 0.0 0.0 0.00 0.00 0.00 10 990.5